Member area
Imprimable
Andenne, 19/03/2017, BEL - Trail de la Primavera
List of reports > 30.2km - Result
Search: Page: [1]
295 Entries
 
Complains are not accepted anymore. Results are final.
Category
PosNrNameAgeNATTimeTkmMoy.PlaceNameCity
1.3151ROUCHET François29BEL2:25:114:49 12.481seh
2.3078PONSARD Julien36BEL2:25:184:49 12.472sehBREUVANNE
3.3030WAUTIER Benoit47BEL2:36:525:12 11.551ve1PERWEZ
4.3035BENOÎT Thomas35BEL2:38:295:15 11.433seh
5.3268VAN DER GAAG Dirk Jan49BEL2:40:455:20 11.272ve1WAGENINGEN
6.3173PORTETELLE Antoine26BEL2:41:475:22 11.204sehVEDRIN
7.3011COOPMAN Frédéric35BEL2:42:445:24 11.145seh
8.3168BERTHOLOMÉ BaptisteBEL2:43:545:26 11.061xxx
9.3170LÉONARD Sindbad21BEL2:43:595:26 11.056sehHONNAY
10.3217LETESSON Guillaume31BEL2:46:405:32 10.877sehPROFONDEVILLE
11.3118GEORIS Sebastien38BEL2:47:115:33 10.848seh
12.3205ZEINSTRA Jeroen42BEL2:47:475:34 10.803ve1WAGENINGEN
13.3095FMALEVÉ Bérengère41BEL2:47:525:34 10.791ai1
14.3301THOMAS Christophe41BEL2:47:555:34 10.794ve1
15.3136ENGELEN Eric47BEL2:48:405:36 10.745ve1MAASMECHELEN
16.3221TURF Ewoud33BEL2:49:095:37 10.719sehMENEN
17.3053TILMANT Grégoire33BEL2:50:545:40 10.6010sehHEMPTINNE
18.3021DECAMP Jerome38BEL2:51:225:41 10.5711sehSART ST LAURENT
19.3286VANDERGEETEN Jeoffrey38BEL2:53:105:45 10.4612sehWOLUWE SAINT LAMBERT
20.3157LEFER Vincent38BEL2:54:225:47 10.3913sehVITRIVAL
21.3222VAN ACKER Tom25BEL2:54:435:48 10.3714sehROESELARE
22.3047RAES Yann36BEL2:54:495:48 10.3715sehHARELBEKE
23.3262ROUSSEAU David44BEL2:54:565:48 10.366ve1BRAIVES
24.3271ROBERT Yves47BEL2:56:195:51 10.287ve1AMAS
25.3110KERKHOVE Loic32BEL2:56:395:51 10.2616sehBRUXELLES
26.3058VAN LANDSCHOOT Jonas28BEL2:56:475:52 10.2517sehPROFONDEVILLE
27.3001OGER Benjamin29BEL2:56:495:52 10.2518seh
28.3037HARPIGNY Cedric41BEL2:57:045:52 10.238ve1OBOURG
29.3201FRANCK Gérome27BEL2:57:295:53 10.2119sehBRUXELLES
30.3092DELERS Maximilien31BEL2:57:475:54 10.1920sehSOIGNIES
31.3218HAZETTE Henri33BEL2:57:555:54 10.1921sehELLEZELLES
32.3057ZINK Philippe41BEL2:58:335:55 10.159ve1BIERWART
33.3192FCAPPELLE Stephanie29BEL2:58:485:56 10.131sefGEMBLOUX
34.3054LENOBLE Maxence32BEL3:00:295:59 10.0422sehTOURNAI
35.3215PLEIJSIER Roemer40BEL3:01:376:01 9.9823sehWAGENINGEN
36.3103GAUSSET Olivier50BEL3:02:326:03 9.9310ve1BRUXELLES
37.3127ROSOUX Pierre Yves50BEL3:02:436:03 9.9211ve1GANSHOREN
38.3133HARTERT Julien34BEL3:02:506:04 9.9124sehBERTRIX
39.3196COLON Jonathan32BEL3:03:506:06 9.8625seh
40.3279VANDERSTRAETEN Mattias32BEL3:03:536:06 9.8526sehMOLLEM
41.3083WINKIN Pierre-Yves29BEL3:03:546:06 9.8527sehFREYLANGE
42.3199GILLET Emmanuel46BEL3:03:596:06 9.8512ve1VINALMONT
43.3113BAETENS Geert51BEL3:04:016:06 9.851ve2LIER
44.3004VANDERBREETSTRAETEN Thierry53BEL3:05:076:08 9.792ve2BRUXELLES
45.3023DEWANDELEER Bart30BEL3:06:426:11 9.7128sehGOOIK
46.3339CORIA Denis35BEL3:08:046:14 9.6429sehJEHAY
47.3313GORTS Hans34BEL3:08:086:14 9.6330sehGEEL
48.3096FLORIAUX Emilie33BEL3:08:496:16 9.602sef
49.3312HELSEN Steff27BEL3:10:026:18 9.5431sehWESTERLO
50.3280MENS David23BEL3:10:056:18 9.5332sehWESTERLO
51.3247GEERAERT Sebastiaan31BEL3:10:106:18 9.5333sehMENEN
52.3277SCHANK Alexander28BEL3:10:356:19 9.5134sehVILLERS-LA-VILLE
53.3186HERMAN Grégory40BEL3:10:486:20 9.5035sehSPONTIN
54.3259FAUQUENOY SylvainBEL3:11:366:21 9.462xxxRAMILLIES
55.3141LALOYAUX Dorian29BEL3:11:526:22 9.4436sehERQUELINNES
56.3121CASTELEIN Bram29BEL3:11:576:22 9.4437sehLAUWE
57.3010METHENIER Anthony33BEL3:12:076:22 9.4338sehSAINT _GILLES
58.3129MALCOURANT Cyrille39BEL3:12:236:23 9.4239sehMORLANWELZ
59.3064MARSIN Gaétan42BEL3:13:106:24 9.3813ve1UCCLE
60.3163COLLIGNON Brieuc28BEL3:14:136:26 9.3340sehTEMPLOUX
61.3036BENOIT Mathieu32BEL3:15:176:28 9.2841seh
62.3258JANVIER Philippe38BEL3:15:236:29 9.2742sehFLÉRON
63.3263DISTEQUE Samuel39BEL3:15:306:29 9.2743sehHANNUT
64.3143FDEBATTY Olivia23BEL3:15:486:29 9.263sefNAMUR
65.3274FRIPPIAT Frederic49BEL3:15:536:30 9.2514ve1LOYERS
66.3031GILLARD Jean-Michel44BEL3:15:556:30 9.2515ve1YVOIR
67.3278BERNARD Eric45BEL3:16:056:30 9.2416ve1LONZÉE
68.3105DEFLEUR KevinBEL3:16:336:31 9.223xxx
69.3250FERIN Patrick52BEL3:17:156:32 9.193ve2
70.3055BEGUIN Olivier37BEL3:17:456:33 9.1644sehBONINNE
71.3135TORDEUR Dan44BEL3:18:156:34 9.1417ve1A
72.3319VOLCKAERTS Guy33BEL3:18:316:35 9.1345sehAARSCHOT
73.3194SACRÉ Rémi31BEL3:19:256:37 9.0946sehNANINNE
74.3253HERMANS Thomas41BEL3:19:416:37 9.0718ve1LE ROEULX
75.3029FFOURGEAUX Sophie38BEL3:19:506:38 9.074sefMOHA
76.3137QUITTELIER Jas27BEL3:20:016:38 9.0647sehMARCHIN
77.3125RORIVE Laurent42BEL3:20:386:39 9.0319ve1MARNEFFE
78.3134MARLIER Sébastien37BEL3:21:056:40 9.0148sehBOIGNÉE
79.3126MASY Sébastien40BEL3:21:066:40 9.0149sehWANZE
80.3161SNEESSENS Alain47BEL3:21:136:40 9.0120ve1JODOIGNE
81.3082COLLETTE Vincent55BEL3:21:146:40 9.004ve2HAMME-MILLE
82.3229LONEZ Thomas35BEL3:21:306:41 8.9950sehLAUSANNE
83.3026BRILLE Christopher32BEL3:21:316:41 8.9951sehHOLLAIN
84.3120CORNUT Patrice43BEL3:21:386:41 8.9921ve1BOUSVAL
85.3264ANACHKIN Filip30BEL3:21:596:42 8.9752sehKESSEL-LO
86.3009BADOT Hadrien33BEL3:22:246:43 8.9553sehNALINNES
87.3202PHILIPPIN Gregory38BEL3:22:286:43 8.9554sehLANDENNE
88.3051VANHAUWAERT Bert35BEL3:22:296:43 8.9555sehLAUWE
89.3067DELANNOY Gauthier43BEL3:22:386:43 8.9422ve1WAREMME
90.3080DEKEISTER Emmanuel45BEL3:22:416:43 8.9423ve1HALLUIN
91.3220BAYET Jacques47BEL3:22:576:44 8.9324ve1COURCELLES
92.2012PEETERILLE Frederic45BEL3:23:046:44 8.9225ve1
93.3162FNEMERY Geraldine38BEL3:23:076:44 8.925sefMAIZERET
94.3226FRANÇOIS Jérome31BEL3:23:096:44 8.9256sehONHAYE
95.3275VERSLYPE Alan36BEL3:23:166:44 8.9157sehBIEZ
96.3114THYS Frederic40BEL3:23:216:44 8.9158sehSEILLES
97.3207BERTRAND Thibaut35BEL3:23:336:45 8.9059sehBOUGE
98.3267JACQMIN Nathanael52BEL3:23:376:45 8.905ve2MALONNE
99.3006BONNENGE Benjamin34BEL3:23:586:46 8.8860sehLA LOUVIERE
100.6199HASTIR Olivier41BEL3:24:046:46 8.8826ve1MOHIVILLE
101.3149DONNAY Eric50BEL3:24:086:46 8.8827ve1ASSESSE
102.3190LAMBILLON Quentin37BEL3:24:416:47 8.8561sehVEDRIN
103.3093GEUSE Julien36BEL3:24:586:48 8.8462sehA
104.3090HEINE Laurent47BEL3:25:026:48 8.8428ve1MARNEFFE
105.3269PAGÈS Nicolas38BEL3:25:156:48 8.8363sehNANINNE
106.3122GOOR Jean-Noël45BEL3:25:236:49 8.8229ve1BURDINNE
107.3193CRAPS Fabien43BEL3:25:266:49 8.8230ve1BELGRADE
108.3013PORTUGAL Frederico40BEL3:25:316:49 8.8264sehBRUXELLES
109.3115SIMONS Christof27BEL3:25:386:49 8.8165sehA
110.3050MAES Joachim37BEL3:25:596:50 8.8066sehGULLEGEM
111.3020MASSON Stéphane46BEL3:27:126:52 8.7531ve1SAINT-AMAND-LES-EAUX
112.3022VAN DE VOORT Erik-Jan55BEL3:27:356:53 8.736ve2SOMEREN
113.3139FDENAYER Kimberley36BEL3:28:466:55 8.686sefCHÊNE
114.3049INNOCENTE Gino50BEL3:29:136:56 8.6632ve1BINCHE
115.3224DETOLLENAERE Damien37BEL3:29:306:57 8.6567sehHERSEAUX
116.2268VANNESTE Kenny37BEL3:30:546:59 8.5968sehMENEN
117.3209VANHULST Nicolas33BEL3:31:047:00 8.5969sehBRAINE L ALLEUD
118.3041DEMARET Raymond62BEL3:31:277:01 8.571ve3VILLE EN HESBAYE
119.3039DEMARET Frédérik40BEL3:31:297:01 8.5770sehVILLE EN HESBAYE
120.3164MATAGNE Pierre-Yves34BEL3:31:397:01 8.5671sehNAMUR
121.3005BONNENGE Jeremy32BEL3:31:507:01 8.5572sehMORLANWELZ
122.3018DUTRIEUX Michaël42BEL3:32:267:03 8.5333ve1TOURNAI
123.3256LAHAYE Vincent25BEL3:32:417:03 8.5273sehGREZ-DOICEAU
124.3238ROBYNS Jérôme31BEL3:32:447:03 8.5274sehWOLUWE-SAINT-LAMBERT
125.3038BENOÎT Michel61BEL3:33:017:04 8.512ve3
126.3255COUNSON Manuel37BEL3:33:347:05 8.4875sehAMBERLOUP
127.3203BODSON Cedric39BEL3:34:357:07 8.4476sehMARNEFFE
128.3270KEMPENEERS Léopold43BEL3:34:397:07 8.4434ve1HUCCORGNE
129.3254TEMMERMAN Maxime25BEL3:34:427:07 8.4477sehFERNELMONT
130.3257AMMENDOLA Antonio39BEL3:35:157:08 8.4278sehSAINT AUBIN
131.3070DAGNEAUX Christophe35BEL3:35:177:08 8.4279sehNALINNES
132.3079JASPAR Steve41BEL3:35:307:09 8.4135ve1THEUX
133.3282PIMENTA Sergio34BEL3:35:397:09 8.4080sehTELLANCOURT
134.2267CIRO Claridi34BEL3:35:497:09 8.4081sehHEULE
135.3034BIHAIN Bernard46BEL3:36:197:10 8.3836ve1FAUVILLERS
136.3159MINNE Laurent42BEL3:36:367:11 8.3737ve1WÉPION
137.3239POLLART Jean-Francois50BEL3:36:537:11 8.3638ve1LONZÉE
138.3160GEORGES Benoit38BEL3:37:517:13 8.3282sehHAMOIS
139.3320GHEM J-F41BEL3:37:597:14 8.3139ve1
140.3099ROMAIN Rudi50BEL3:38:207:14 8.3040ve1WARNANT
141.3025DESTERBECQ Jimmy27BEL3:38:237:14 8.3083sehROUCOURT
142.3281FMATHELIN Florence48BEL3:38:377:15 8.292ai1SAINT-MÉDARD
143.3028CHRISTOPHE Cedric40BEL3:39:257:16 8.2684sehPELLAINES
144.3075LOMBAERT Sébastien42BEL3:39:427:17 8.2541ve1UCCLE
145.3310FABRE Lionel45BEL3:39:467:17 8.2542ve1MODAVE
146.3007BÉCHADE Rémi28BEL3:40:037:18 8.2485sehIXELLES
147.3213AERTS Edwin38BEL3:40:207:18 8.2286sehTILBURG
148.3059FDELABASSEE Vinciane44BEL3:40:427:19 8.213ai1
149.3077FWATELET Jenny39BEL3:41:077:20 8.197sefTHONNE-LA-LONG
150.3076ETIENNE Xavier42BEL3:41:097:20 8.1943ve1THONNE-LA-LONG
151.3131PIERLOT Nicolas48BEL3:41:337:21 8.1844ve1BERTRIX
152.3085LAMBOT Frédéric44BEL3:41:377:21 8.1845ve1BERTRIX
153.3108VAN GINNEKEN Jorgo35BEL3:41:467:21 8.1787sehKALMTHOUT
154.3008LECLERCQ Sébastien32BEL3:41:567:21 8.1688sehBRUXELLES
155.3094CLOSJANS Raphael39BEL3:42:037:22 8.1689sehCIPLET
156.3184FHUPET Cécile55BEL3:42:147:22 8.151ai2LOBBES
157.3003CHANTRAINE Thierry43BEL3:42:357:23 8.1446ve1BRUXELLES
158.3228DERCQ Lucas27BEL3:42:517:23 8.1390sehNALINNES
159.3124HELAIN Michael34BEL3:42:547:23 8.1391sehWANZE
160.3285LAMBION William47BEL3:42:567:23 8.1347ve1VINALMONT
161.3150BADO Mathieu34BEL3:43:057:24 8.1292sehLES ISNES
162.3283CONROTTE Vincent34BEL3:43:107:24 8.1293sehVIRTON
163.3171JUNION Steve35BEL3:43:137:24 8.1294sehEGHEZEE
164.3185HAUGLUSTAINE Pierre41BEL3:43:217:24 8.1148ve1ROTHEUX
165.3032DUMORTIER Olivier45BEL3:43:307:25 8.1149ve1MOUSCRON
166.3068FBARCHAT ValerieBEL3:43:347:25 8.114xxx
167.3102PREUDHOMME Vincent45BEL3:43:457:25 8.1050ve1NAMUR
168.3227VAN KELST Luc41BEL3:44:037:26 8.0951ve1JAMBES
169.3181BOONE Francois40BEL3:45:327:29 8.0395sehSCLAYN
170.3140VANGEYTE Eric44BEL3:46:367:31 8.0052ve1EBLY
171.3236LAMBORELLE Michel55BEL3:47:037:32 7.987ve2ANDENNE
172.3219DUCOBU Denis41BEL3:47:487:33 7.9553ve1GENLY
173.3182FHUBERT Isabelle39BEL3:48:107:34 7.948sefCINEY
174.3183DIEUDONNE Gilles33BEL3:48:117:34 7.9496sehLOYERS
175.3249MALCHAIRE Raphael42BEL3:48:147:34 7.9454ve1LIEGE
176.3116SCHEERS Michael33BEL3:48:177:34 7.9497sehCOUTHUIN
177.3002VAN DIJCK Nico47BEL3:49:407:37 7.8955ve1KOEKELBERG
178.3248VAN DE VOORDE Tom45BEL3:49:457:37 7.8956ve1HULST
179.3261JAARSMA Marcel37BEL3:50:037:38 7.8898sehWAGENINGEN
180.3187RADART Gregory40BEL3:50:097:38 7.8799sehNAMUR
181.3169FMOHIMONT Nathalie48BEL3:50:117:38 7.874ai1COURRIÈRE
182.3223PILLYSER Benoit41BEL3:50:397:39 7.8657ve1MOUSCRON/MOESKROEN
183.3145RORIVE Nicolas41BEL3:51:017:39 7.8458ve1GESVES
184.3189PIGNOLET Patrice55BEL3:51:167:40 7.848ve2GESVES
185.3246FFONTAINE Coralie31BEL3:51:507:41 7.829sefGEER
186.3245GUILLAUME Jean-Michel38BEL3:51:527:41 7.82100sehLANTREMANGE
187.3024VAN BEL Hans49BEL3:52:197:42 7.8059ve1EDEGEM
188.3191LAMBERT Bertrand39BEL3:52:307:42 7.79101seh
189.3225ANDY Meulemeester45BEL3:52:377:43 7.7960ve1HERSEAUX
190.3052FCOUPEZ Anne Sophie45BEL3:52:417:43 7.795ai1HERSEAUX
191.3241GOFFOY Thomas31BEL3:52:587:43 7.78102sehMALONNE
192.3176STOKIS Raphael50BEL3:53:047:44 7.7761ve1ERPENT
193.3100D'HAUWE Patrick40BEL3:53:077:44 7.77103sehJAMIOULX
194.3179BERCY Vincent43BEL3:53:107:44 7.7762ve1NALINNES
195.3065FLOOR Frederic42BEL3:53:207:44 7.7763ve1PIETREBAIS
196.3132LEJEUNE Pierre-Yves37BEL3:54:427:47 7.72104sehBERTRIX
197.3317LEBAILLY Francois27BEL3:54:587:47 7.71105sehGRANDCOURT
198.3276SWERTS Nicolas40BEL3:55:037:47 7.71106sehVYLE-THAROUL
199.3043READY Patrice36BEL3:55:357:49 7.69107sehZWEVEGEM
200.3045VERDONCK Bruno31BEL3:55:387:49 7.69108sehZWEVEGM
201.3060GONSETTE Charles-Etienne33BEL3:55:417:49 7.69109sehMONS
202.3044CAMELBEKE Geert48BEL3:55:447:49 7.6964ve1ZWEVEGEM
203.3042NOTE Tony41BEL3:55:487:49 7.6865ve1REKKEM
204.3156YERNAUX Christophe41BEL3:56:007:49 7.6866ve1NAMUR
205.3198FDE FRAINE Ingrid38BEL3:57:147:52 7.6410sefROTSELAAR
206.3237NEMEGHAIRE Laurent46BEL3:57:167:52 7.6467ve1PÉRUWELZ
207.3147BALTHAZART Yves54BEL3:57:357:53 7.639ve2ERPENT
208.3063FCHARLIER Marie46BEL3:58:187:54 7.606ai1BONSIN
209.3211FVINQUIER Sabrina45BEL3:58:247:54 7.607ai1LAUWE
210.3212DENEIR Bart45BEL3:58:267:54 7.6068ve1LAUWE
211.3144WACHEUL Dimitri43BEL3:58:307:54 7.6069ve1BLATON
212.3177COUPAIN Philippe36BEL3:58:337:54 7.60110sehHAM-SUR-HEURE
213.3101FTSHIBASU-KABEYA Aurore33BEL3:58:377:55 7.5911sefIXELLES
214.3311CASTELIN Pierre40BEL3:58:457:55 7.59111sehBLATON
215.3188FLOYMONT Olivier51BEL3:59:007:55 7.5810ve2ANDENNE
216.3142DE STAERCKE Jean-Benoit60BEL4:01:027:59 7.5211ve2HALTINNE
217.3146VRANKENNE Christophe42BEL4:01:198:00 7.5170ve1WANZE
218.3069MAZZAGUFO Samuel41BEL4:02:138:02 7.4871ve1
219.3074LAMBERT Sebastien44BEL4:02:158:02 7.4872ve1ENGIS
220.3309BOUROTTE Nicolas41BEL4:03:078:03 7.4573ve1SPY
221.3273COLLET Jeremy46BEL4:03:168:04 7.4574ve1SPY
222.3214PETER Degrijze53BEL4:03:478:05 7.4312ve2WEVELGEM
223.3272FLAMBRECHTS Patricia45BEL4:04:008:05 7.438ai1MAZY
224.3061KONSTANTINIDIS Stephanos39BEL4:05:368:08 7.38112sehBON-SECOURS
225.3234GRANDMAISON Gregory35BEL4:06:058:09 7.36113sehENGIS
226.3087FGASPAR Valérie35BEL4:06:558:11 7.3412sefBERTRIX
227.3046RODIA Frederic44BEL4:07:128:12 7.3375ve1FRAMERIES
228.3230PIERON Vincent47BEL4:07:188:12 7.3376ve1PÉRUWELZ
229.3244FHIERNAUX Marina42BEL4:07:368:12 7.329ai1HEERS
230.3200VANOVERBERGHE RégisBEL4:07:428:13 7.325xxxGESVES
231.3081VAN ENST Jean52BEL4:09:138:16 7.2713ve2BRUXELLES
232.3243FGEELEN Béatrice40BEL4:09:228:16 7.2713sefHOGNOUL
233.3316CULOT Lionel37BEL4:09:248:16 7.27114sehANDERLECHT
234.3231PAY Filip48BEL4:11:168:20 7.2177ve1HOEILAART
235.3138MONNEAUX Quentin46BEL4:11:378:20 7.2078ve1WEMMEL
236.3158HOOLANS Benoit36BEL4:11:598:21 7.19115sehDION-VALMONT
237.3233MASTENBROEK Niels46BEL4:12:528:23 7.1779ve1UTRECHT
238.3165FSERVAIS Esther40BEL4:13:018:23 7.1614sefONOZ
239.3166DEMONSEAU Nicolas49BEL4:13:048:23 7.1680ve1SOMBREFFE
240.3089FSCHMIT Sonja36BEL4:14:158:26 7.1315sefBERTRIX
241.3123LOUIS Gerald40BEL4:14:188:26 7.13116sehBERTRIX
242.3111FSTADHOUDERS Tanya42BEL4:14:218:26 7.1210ai1ROTTERDAM
243.3242FELBOUZ Leila37BEL4:14:258:26 7.1216sefRETINNE
244.3128CUNIN Nicolas37BEL4:14:298:26 7.12117sehPROFONDEVILLE
245.3154HERMANT Philippe46BEL4:14:318:26 7.1281ve1FLOREFFE
246.3073DIDRICHT Francis46BEL4:14:558:27 7.1182ve1ENGIS
247.3208LESTRATE Pascal46BEL4:16:088:29 7.0783ve1FAIMES
248.3040FTHOMAS Alexandra40BEL4:16:128:29 7.0717sef
249.3333RENUART Thomas41BEL4:16:148:30 7.0784ve1
250.3178VAEL Guillaume36BEL4:18:218:34 7.01118sehBOUFFIOULX
251.3210NR 3210BEL4:18:458:35 7.006xxx
252.3109FDRIESSEN Joannic39BEL4:19:248:36 6.9918sefHUY
253.6064FLAMBERT Joyce42BEL4:20:088:37 6.9711ai1WASSEIGES
254.3107BUHMANN Sven39BEL4:20:118:37 6.96119sehHULST
255.3153DUPUIS Pascal49BEL4:20:428:38 6.9585ve1HALTINNE
256.3167JACQUET Jean-Francois44BEL4:21:008:39 6.9486ve1VEDRIN
257.3252HIERTZ Michel25BEL4:21:048:39 6.94120sehAWIRS
258.3251FCALDERAN Paola51BEL4:21:098:39 6.942ai2AWIRS
259.3240DEJONGHE Simon29BEL4:21:488:41 6.92121sehBERCHEM
260.3097FDE CAUSMAECKER Agnes63BEL4:21:518:41 6.921ai3LEMBEKE
261.3098FBOSMANS Ruth43BEL4:21:548:41 6.9212ai1BOORTMEERBEEK
262.3321DECLERCK Lucas19BEL4:21:568:41 6.921eshWEZEMBEEK-OPPEM
263.3112CONING Patrick60BEL4:22:158:42 6.9114ve2VINALMONT
264.3048FWARIN Corinne47BEL4:23:158:43 6.8813ai1COURCELLES
265.3119FBOULANGER Ode38BEL4:24:288:46 6.8519sefBRUXELLES
266.3130EVRARD EricBEL4:24:308:46 6.857xxx
267.3265BRÈNE Yves46BEL4:24:358:46 6.8587ve1VILLERS-LE-BOUILLET
268.3266GYEN Michaël40BEL4:26:088:49 6.81122sehVILLERS-LE-BOUILLET
269.3033BRANCALEONI Patrick66BEL4:26:118:49 6.813ve3MUSSON
270.3318FGAUTHIER Sylvie32BEL4:26:588:51 6.7920sefGESVES
271.3152DEGÉE Dominique49BEL4:27:248:52 6.7888ve1ANDENNE
272.3071WELLIQUET Philippe35BEL4:28:398:54 6.75123sehHERMALLE-SOUS-HUY
273.3072LIÉNARD Cédric39BEL4:28:428:54 6.74124sehIVOZ-RAMET
274.3086FPONCELET Aline35BEL4:28:588:55 6.7421sefBERTRIX
275.3088FARNOULD Helene31BEL4:29:028:55 6.7422sefNEUVILLERS
276.3014FJEMINE Emilie29BEL4:32:319:02 6.6523sefAUDERGHEM
277.3012FGOUDET Sophie43BEL4:32:369:02 6.6514ai1UCCLE
278.3322DECLERCK Vincent47BEL4:34:179:05 6.6189ve1WEZEMBEEK-OPPEM
279.3019HEKLINGER Sylvain44BEL4:34:199:05 6.6190ve1ALLEUR
280.3260FCAISE Carine51BEL4:36:399:10 6.553ai2MARBAIS
281.3117THYS Fabian40BEL4:37:299:12 6.53125sehHUY
282.3172VAN YCK Christophe39BEL4:37:359:12 6.53126sehGELBRESSÉE
283.3027MASSIN Rudi48BEL4:38:219:13 6.5191ve1MANHAY
284.3148FDEMONT Katia44BEL4:40:069:17 6.4715ai1NAMUR
285.3155VAN CAUTER Philippe51BEL4:44:569:27 6.3615ve2FAUVILLERS
286.2013FMAROY Murielle50BEL4:53:529:44 6.1716ai1NIL SAINT VINCENT
287.2052FTREBUCHET Catherine45BEL4:53:559:44 6.1717ai1BRUXELLES
288.2196FHERMAL Marie-Christine59BEL4:54:009:45 6.164ai2WAVRE
289.3314FCOCHU Sarah21BEL4:54:029:45 6.1624sefCOURT SAINT ETIENNE
290.2014ARNOULD Jean-Marie59BEL4:55:369:48 6.1316ve2LIMELETTE
291.3204FVERKAEREN Charline38BEL4:56:589:50 6.1025sefVEZIN
292.3174FCHARDON Ariane47BEL4:57:019:51 6.1018ai1TILLIER
293.3066STASSE Jean-Pierre56BEL5:14:5910:26 5.7517ve2EVELETTE
294.3091FVOS Claire52BEL5:15:0110:26 5.755ai2EVELETTE
295.3016WARNAU Yves69BEL6:31:0712:58 4.634ve3KRAAINEM
DNF: did not finish; DSQ: disqualified; Speed in km/h
Page: [1]